Wind_Speed
10 9 9 8 8 7 7 8 8 8 8 8 8 9 9 10 10 11 11 11 10 10 10 10 10 9 9 9 8 7 7 7 7 8 8 8 7 7 8 7 7 6 6
9 8 8 7 7 6 6 6 7 7 7 7 7 8 9 9 10 10 10 10 10 11 10 10 9 9 8 8 8 7 7 7 7 8 8 8 7 7 7 6 6 6 5
8 7 7 6 6 6 5 5 5 6 6 7 7 7 8 9 9 9 9 9 10 10 10 10 9 9 8 8 8 8 8 7 7 8 7 7 6 6 6 6 6 6 5
8 7 7 6 4 4 5 4 4 4 5 5 6 7 7 7 8 8 8 8 9 9 9 9 9 8 8 7 7 7 7 7 7 7 6 6 5 6 6 6 6 6 5
8 8 7 6 5 4 4 3 3 3 4 4 6 6 6 7 7 7 7 7 8 8 8 9 8 8 7 6 6 7 6 6 6 6 6 5 5 5 6 6 5 5 5
8 8 7 6 5 5 4 3 3 3 3 4 5 5 6 6 7 7 7 7 8 8 8 8 7 7 6 6 5 6 5 5 5 5 5 4 5 5 6 5 5 4 4
8 8 8 6 5 5 5 4 3 3 3 4 5 5 5 5 6 6 7 7 7 7 7 7 6 6 5 5 5 5 4 4 4 3 4 4 4 5 5 5 4 4 3
8 8 8 7 5 5 5 4 3 3 3 4 4 5 4 5 5 6 6 6 6 6 6 5 5 5 5 4 4 4 4 3 3 3 3 3 4 4 4 3 3 3 3
8 8 7 7 6 6 5 4 4 3 3 3 3 4 4 4 5 5 5 5 5 5 5 5 4 4 5 4 3 4 4 3 3 2 3 3 4 4 4 2 2 3 3
8 8 7 7 6 6 5 5 4 3 3 3 3 3 3 3 4 4 4 4 4 5 5 4 4 5 5 5 4 4 3 3 3 3 3 3 3 4 3 3 2 3 3
9 8 8 8 7 6 6 6 4 3 3 3 3 3 2 3 3 3 4 4 4 4 5 4 4 4 5 5 5 4 4 4 3 4 4 4 3 3 3 3 3 2 2
9 9 9 8 7 6 6 6 5 4 4 3 3 3 2 2 2 2 3 4 4 4 4 4 4 4 5 5 5 5 5 4 4 3 3 3 3 4 3 3 3 2 2
9 9 8 8 8 7 6 6 5 4 4 4 3 3 2 2 2 2 3 3 3 3 3 3 4 4 4 4 4 5 5 5 4 3 3 3 3 3 3 3 3 3 3
9 9 9 9 8 8 7 7 6 5 5 5 4 3 2 2 1 1 2 2 2 2 2 2 3 3 3 3 3 4 4 4 4 3 3 3 3 3 3 3 3 3 3
9 9 9 10 9 8 7 7 7 6 5 5 5 4 3 3 2 2 2 2 2 1 1 2 2 2 3 2 3 3 4 4 4 3 3 3 2 3 3 3 3 3 3
9 9 10 10 10 9 8 8 8 6 6 6 5 5 4 4 4 3 3 3 3 2 2 2 2 2 2 2 3 3 3 3 3 3 3 2 2 2 2 3 3 3 4
9 9 10 10 10 10 9 9 8 7 7 7 6 6 5 5 4 3 3 4 4 3 2 2 2 2 3 3 3 3 3 3 3 3 3 3 2 2 2 2 3 3 3
9 10 10 10 10 10 10 10 10 8 7 7 7 7 6 5 5 4 4 4 4 3 2 2 2 2 2 2 2 3 3 3 4 3 3 3 2 2 2 2 2 2 2
10 10 10 11 11 11 10 11 11 9 8 8 8 7 7 6 6 4 4 4 4 4 3 3 3 2 2 2 2 3 3 3 4 4 3 3 2 1 1 2 2 2 2
10 10 10 11 11 11 11 11 12 11 10 9 8 8 7 7 6 5 5 4 4 4 4 3 3 3 2 2 3 3 4 4 4 4 4 3 3 2 2 2 2 2 2
10 11 11 11 11 11 12 12 13 12 11 9 9 8 8 7 7 6 5 5 5 5 4 4 3 3 3 3 3 4 4 4 4 4 4 3 3 3 2 3 3 2 3
11 11 12 12 12 12 13 13 13 12 10 9 9 8 8 7 7 6 6 6 6 5 5 4 4 4 4 4 4 4 4 5 5 5 4 4 4 4 3 4 4 4 4
12 12 12 13 13 13 13 13 13 12 10 9 9 8 8 7 7 7 6 6 6 6 6 5 5 4 5 5 5 5 5 5 6 5 5 5 5 5 5 5 5 6 6
12 12 13 13 14 13 13 12 13 12 10 9 9 9 8 8 7 7 6 6 6 7 7 6 6 6 5 6 6 5 6 6 6 6 6 6 6 7 6 6 6 6 6
12 12 13 14 14 13 12 12 12 12 11 10 9 9 10 9 8 7 7 7 7 7 7 6 6 6 7 7 7 6 7 7 7 7 8 8 8 8 8 8 8 8 8
13 13 13 14 14 12 12 11 12 12 11 10 10 9 10 9 8 7 7 7 7 7 7 7 6 7 8 8 8 8 8 8 8 9 9 10 10 10 10 10 9 9 9
Wind_Direction
60 64 68 71 69 70 73 74 82 86 93 96 95 99 103 100 97 100 99 106 104 104 104 102 104 106 103 99 98 91 86 86 88 86 88 90 88 93 94 90 83 80 79
55 58 62 64 68 67 70 73 84 84 89 93 93 94 98 101 102 105 105 102 103 104 100 96 97 98 99 92 88 88 89 85 88 88 88 88 86 87 89 87 81 80 76
50 53 57 60 66 67 67 73 79 81 86 92 93 94 98 101 101 103 101 99 104 98 94 91 93 93 94 89 85 85 89 88 89 93 90 88 82 80 85 82 75 72 72
48 49 50 50 55 59 60 65 72 82 87 94 95 96 98 97 96 98 99 99 100 96 92 88 86 88 91 90 87 83 84 81 87 90 85 82 76 77 79 78 73 70 70
45 45 42 40 37 42 42 40 49 78 85 97 99 97 94 92 91 92 99 99 94 91 88 85 83 82 89 93 88 86 84 80 83 83 79 73 70 74 76 74 68 69 65
42 41 40 36 31 28 25 28 52 72 85 97 99 97 95 91 88 92 97 95 91 90 87 86 86 82 84 91 91 91 89 87 81 75 74 73 71 78 76 71 65 64 62
40 39 35 33 30 26 19 35 44 64 88 94 92 88 87 87 86 87 86 86 84 85 84 85 82 78 78 84 87 91 87 78 74 69 71 73 72 73 64 63 55 51 50
35 34 32 29 25 22 21 28 31 42 51 65 70 73 79 82 82 82 81 80 81 82 84 83 79 74 73 75 79 80 76 75 63 60 65 72 68 65 56 53 50 38 38
33 33 34 30 25 24 21 16 11 25 42 57 62 66 67 71 73 74 76 79 80 82 82 79 74 65 65 63 68 74 70 61 49 47 64 69 66 63 54 51 44 37 33
32 33 30 28 25 22 20 12 359 12 43 47 44 51 61 67 72 75 73 72 74 74 72 73 73 72 69 59 58 69 64 58 43 56 69 62 61 57 51 37 29 31 29
30 28 24 23 22 20 20 16 10 10 27 28 26 40 50 60 66 70 69 66 68 69 66 70 70 65 54 52 51 53 57 65 60 60 53 51 51 49 41 28 21 19 17
28 25 22 18 16 16 15 15 14 10 11 13 20 26 30 41 55 62 64 63 57 59 60 59 56 53 51 52 55 55 57 61 52 48 49 47 48 43 37 28 21 12 13
25 23 21 17 15 15 11 10 7 4 4 4 8 11 24 30 35 50 50 49 42 47 51 54 57 52 56 58 60 57 54 54 50 49 50 46 43 40 35 26 11 13 14
20 18 18 15 12 9 6 3 1 356 356 356 354 360 9 7 1 17 28 33 25 28 39 42 48 44 51 62 54 55 55 50 51 51 50 46 40 35 31 17 20 33 35
15 13 12 13 8 3 1 357 353 350 345 346 348 340 337 336 332 330 329 353 358 2 11 25 32 32 26 34 39 42 43 40 43 45 45 44 37 38 33 26 29 46 37
8 6 7 8 5 0 357 356 350 345 342 341 337 333 326 319 316 311 320 331 339 344 354 360 9 9 7 22 26 31 31 24 25 31 27 23 22 20 20 32 43 46 36
2 2 3 3 2 357 353 351 351 347 339 331 330 329 324 315 308 307 312 326 338 343 346 344 355 2 5 19 22 21 20 14 4 12 17 11 8 24 39 38 31 36 43
356 356 357 357 356 356 353 347 345 343 341 333 325 323 322 315 305 300 300 316 332 342 332 332 338 349 2 8 14 10 9 10 4 1 9 12 9 17 19 19 24 30 33
350 350 350 351 350 349 348 345 343 340 336 333 327 320 314 313 313 306 298 300 314 325 322 319 331 335 344 342 350 350 348 357 360 4 7 12 3 356 349 342 353 13 13
344 343 343 346 346 345 344 342 340 338 336 334 331 325 313 307 307 303 298 300 308 312 315 316 323 330 336 330 332 333 338 347 347 351 360 0 352 351 347 339 343 353 346
337 336 337 339 342 344 342 341 339 338 339 335 329 326 322 313 304 295 293 297 297 298 298 304 318 328 333 321 318 323 324 325 327 327 334 342 343 340 334 329 326 314 318
332 331 331 332 334 338 338 338 341 340 338 335 330 326 317 310 304 295 292 292 288 288 286 290 302 313 316 312 305 306 312 317 317 318 320 320 322 323 313 317 319 312 304
326 328 326 326 328 332 334 335 336 338 338 335 331 333 323 311 301 292 288 291 285 279 281 277 283 293 294 298 301 305 309 313 313 312 308 312 310 310 303 299 304 304 303
316 321 325 326 324 325 328 330 332 334 334 331 331 331 325 311 298 285 285 291 286 278 277 273 273 278 283 287 291 299 310 310 308 311 304 302 306 302 298 294 293 293 295
304 313 320 322 322 321 323 327 329 328 328 326 325 327 324 309 294 287 284 284 281 274 274 277 271 274 280 284 288 295 301 307 309 309 308 304 301 299 295 289 289 283 285
298 306 313 316 316 318 319 322 327 327 325 326 325 321 320 309 296 288 284 281 275 276 279 278 276 276 281 285 287 292 294 303 306 306 306 304 303 301 297 289 287 284 281
Height
5889 5888 5887 5887 5887 5886 5886 5885 5884 5884 5883 5883 5883 5883 5883 5883 5883 5883 5883 5882 5883 5883 5884 5885 5885 5885 5886 5886 5887 5888 5888 5889 5889 5889 5890 5890 5891 5891 5891 5892 5892 5892 5892
5891 5890 5889 5889 5889 5888 5888 5887 5887 5886 5886 5885 5885 5885 5884 5884 5885 5885 5885 5885 5885 5885 5886 5886 5887 5887 5887 5888 5888 5889 5889 5890 5890 5890 5891 5891 5892 5892 5892 5893 5893 5893 5893
5892 5892 5891 5891 5891 5890 5890 5889 5889 5888 5888 5887 5887 5887 5886 5886 5887 5887 5887 5887 5887 5887 5888 5888 5888 5889 5889 5889 5890 5890 5891 5891 5891 5891 5892 5893 5893 5893 5894 5894 5894 5894 5894
5894 5893 5893 5893 5892 5892 5892 5891 5891 5890 5890 5889 5889 5889 5889 5889 5889 5889 5889 5889 5889 5889 5889 5890 5890 5890 5891 5891 5891 5892 5892 5892 5892 5893 5893 5894 5894 5894 5895 5895 5895 5895 5895
5896 5895 5894 5894 5894 5893 5893 5893 5892 5892 5891 5891 5891 5891 5891 5891 5890 5890 5891 5891 5891 5891 5891 5891 5892 5892 5892 5892 5893 5893 5893 5894 5894 5894 5895 5895 5895 5895 5896 5896 5896 5896 5896
5897 5897 5896 5896 5895 5895 5895 5894 5894 5893 5893 5892 5892 5892 5892 5892 5892 5892 5892 5892 5893 5893 5893 5893 5893 5893 5893 5894 5894 5894 5895 5895 5895 5895 5895 5896 5896 5896 5896 5897 5897 5897 5897
5899 5898 5898 5897 5897 5896 5896 5896 5895 5895 5895 5894 5894 5894 5894 5894 5894 5894 5894 5894 5894 5894 5894 5894 5895 5894 5894 5895 5895 5896 5896 5896 5896 5896 5896 5896 5897 5897 5897 5897 5897 5897 5897
5901 5900 5899 5898 5898 5898 5897 5897 5897 5896 5896 5896 5896 5896 5896 5895 5896 5896 5896 5896 5896 5896 5896 5896 5896 5896 5895 5896 5896 5897 5897 5897 5897 5897 5897 5897 5897 5898 5898 5898 5898 5898 5898
5902 5902 5901 5900 5899 5899 5899 5898 5898 5898 5897 5897 5897 5897 5897 5897 5897 5897 5897 5897 5897 5897 5897 5897 5897 5897 5897 5897 5897 5897 5898 5898 5898 5898 5898 5898 5898 5898 5898 5899 5899 5898 5898
5904 5903 5902 5902 5901 5900 5900 5900 5899 5899 5898 5898 5898 5898 5898 5898 5898 5898 5898 5898 5898 5898 5898 5898 5898 5897 5898 5898 5898 5898 5898 5898 5898 5898 5899 5899 5899 5899 5899 5899 5899 5899 5899
5905 5905 5904 5903 5903 5902 5901 5901 5901 5900 5900 5899 5899 5899 5899 5899 5899 5899 5899 5899 5899 5899 5899 5899 5899 5899 5899 5898 5899 5899 5899 5899 5899 5899 5899 5899 5899 5899 5899 5900 5899 5899 5899
5907 5906 5906 5905 5904 5903 5903 5902 5902 5901 5901 5900 5900 5900 5900 5900 5900 5900 5900 5900 5900 5900 5900 5900 5900 5900 5900 5899 5900 5900 5900 5900 5900 5900 5900 5900 5900 5900 5900 5900 5900 5899 5899
5909 5908 5907 5906 5905 5905 5904 5904 5903 5902 5902 5901 5901 5901 5901 5901 5901 5901 5901 5901 5901 5901 5901 5901 5901 5901 5901 5901 5900 5901 5901 5901 5901 5901 5901 5901 5901 5901 5900 5900 5900 5899 5899
5910 5909 5909 5908 5907 5906 5906 5905 5904 5904 5903 5902 5902 5902 5902 5902 5902 5902 5902 5902 5902 5902 5902 5902 5902 5902 5902 5902 5902 5902 5902 5902 5902 5902 5902 5901 5901 5901 5901 5900 5900 5900 5899
5911 5910 5910 5909 5908 5907 5906 5906 5905 5904 5904 5903 5902 5902 5902 5902 5902 5902 5902 5902 5902 5902 5902 5902 5902 5902 5903 5902 5902 5902 5903 5903 5903 5902 5902 5902 5902 5902 5901 5901 5900 5900 5900
5912 5911 5911 5910 5909 5908 5907 5906 5906 5905 5904 5904 5903 5903 5903 5902 5903 5902 5903 5903 5903 5903 5903 5903 5903 5903 5903 5903 5903 5903 5903 5903 5903 5903 5903 5902 5902 5902 5902 5901 5901 5901 5900
5913 5912 5911 5910 5909 5909 5908 5907 5906 5905 5905 5904 5903 5903 5903 5902 5902 5903 5903 5903 5903 5903 5903 5903 5903 5903 5903 5903 5903 5903 5903 5903 5903 5903 5903 5902 5902 5902 5902 5902 5901 5901 5901
5913 5913 5912 5911 5910 5909 5908 5907 5907 5906 5905 5904 5904 5903 5903 5902 5902 5902 5903 5903 5903 5903 5903 5904 5903 5903 5903 5903 5903 5903 5903 5903 5903 5903 5903 5903 5903 5902 5902 5902 5902 5901 5901
5914 5913 5912 5911 5910 5909 5908 5907 5906 5906 5905 5904 5903 5903 5902 5902 5902 5902 5903 5903 5903 5903 5903 5904 5903 5903 5903 5903 5904 5903 5903 5903 5903 5903 5903 5903 5902 5902 5902 5902 5902 5902 5901
5914 5913 5912 5911 5910 5910 5909 5907 5906 5905 5904 5904 5903 5902 5902 5902 5902 5902 5902 5903 5903 5903 5904 5903 5903 5903 5904 5904 5904 5903 5903 5903 5903 5903 5903 5902 5902 5902 5902 5902 5902 5901 5901
5913 5913 5912 5911 5910 5910 5908 5907 5906 5905 5904 5903 5902 5902 5901 5901 5902 5902 5902 5902 5903 5903 5903 5903 5903 5904 5904 5904 5904 5904 5903 5903 5903 5903 5903 5902 5902 5902 5902 5902 5901 5901 5901
5913 5912 5911 5911 5910 5909 5908 5907 5905 5904 5903 5902 5902 5901 5901 5901 5901 5901 5901 5902 5902 5902 5903 5903 5903 5903 5904 5904 5904 5904 5903 5904 5903 5902 5902 5902 5902 5901 5901 5901 5901 5901 5900
5912 5911 5911 5910 5909 5908 5907 5906 5905 5904 5903 5902 5901 5901 5900 5900 5900 5900 5901 5901 5901 5902 5902 5902 5902 5903 5903 5903 5903 5903 5903 5902 5902 5901 5901 5901 5901 5900 5900 5900 5900 5900 5899
5911 5910 5910 5909 5908 5907 5906 5906 5904 5903 5902 5901 5900 5900 5899 5899 5899 5899 5900 5900 5900 5901 5901 5901 5901 5902 5902 5902 5902 5902 5902 5901 5901 5900 5900 5900 5899 5899 5898 5898 5898 5898 5898
5909 5909 5908 5907 5907 5906 5905 5905 5904 5903 5902 5901 5900 5899 5899 5898 5898 5898 5898 5899 5899 5899 5900 5900 5900 5901 5901 5901 5901 5901 5901 5900 5900 5899 5899 5898 5898 5897 5897 5897 5896 5896 5895
5906 5907 5907 5906 5905 5905 5904 5903 5903 5902 5901 5900 5899 5898 5898 5897 5896 5897 5897 5898 5898 5898 5898 5899 5899 5899 5899 5900 5899 5899 5899 5899 5898 5898 5897 5897 5896 5896 5895 5895 5894 5894 5894